TimeEDT,TemperatureF,Dew PointF,Humidity,Sea Level PressureIn,VisibilityMPH,Wind Direction,Wind SpeedMPH,Gust SpeedMPH,PrecipitationIn,Events,Conditions,WindDirDegrees,DateUTC
12:54 AM,60.1,53.1,78,30.28,10.0,North,6.9,-,N/A,,Clear,10,2013-09-18 04:54:00
1:54 AM,60.1,52.0,75,30.26,10.0,NNE,9.2,-,N/A,,Clear,20,2013-09-18 05:54:00
2:54 AM,60.1,52.0,75,30.25,10.0,NNE,10.4,-,N/A,,Mostly Cloudy,20,2013-09-18 06:54:00
3:54 AM,59.0,53.1,81,30.25,10.0,North,6.9,-,N/A,,Scattered Clouds,360,2013-09-18 07:54:00
4:54 AM,57.9,53.1,84,30.24,10.0,North,6.9,-,N/A,,Mostly Cloudy,360,2013-09-18 08:54:00
5:54 AM,57.0,53.1,87,30.25,10.0,North,6.9,-,N/A,,Partly Cloudy,10,2013-09-18 09:54:00
6:54 AM,57.0,53.1,87,30.26,10.0,NNE,5.8,-,N/A,,Partly Cloudy,20,2013-09-18 10:54:00
7:54 AM,60.1,54.0,80,30.26,10.0,NNE,8.1,-,N/A,,Clear,20,2013-09-18 11:54:00
8:54 AM,63.0,55.9,78,30.26,10.0,NNE,8.1,-,N/A,,Clear,30,2013-09-18 12:54:00
9:54 AM,69.1,57.9,68,30.27,10.0,NE,9.2,-,N/A,,Clear,40,2013-09-18 13:54:00
10:54 AM,73.0,57.0,57,30.27,10.0,NE,11.5,-,N/A,,Clear,50,2013-09-18 14:54:00
11:54 AM,75.0,57.9,55,30.26,10.0,NNE,8.1,-,N/A,,Clear,30,2013-09-18 15:54:00
12:54 PM,75.9,57.0,52,30.24,10.0,NNE,8.1,-,N/A,,Partly Cloudy,20,2013-09-18 16:54:00
1:54 PM,78.1,55.9,46,30.22,10.0,NNE,9.2,-,N/A,,Partly Cloudy,30,2013-09-18 17:54:00
2:54 PM,77.0,55.0,47,30.20,10.0,Variable,4.6,-,N/A,,Clear,0,2013-09-18 18:54:00
3:54 PM,75.9,55.0,48,30.18,10.0,ENE,8.1,-,N/A,,Clear,60,2013-09-18 19:54:00
4:54 PM,77.0,54.0,45,30.18,10.0,NNE,10.4,-,N/A,,Clear,30,2013-09-18 20:54:00
5:54 PM,75.9,53.1,45,30.18,10.0,ENE,8.1,-,N/A,,Scattered Clouds,60,2013-09-18 21:54:00
6:54 PM,71.1,57.9,63,30.19,10.0,East,6.9,-,N/A,,Clear,100,2013-09-18 22:54:00
7:54 PM,69.1,57.9,68,30.19,10.0,East,5.8,-,N/A,,Clear,100,2013-09-18 23:54:00
8:54 PM,68.0,57.0,68,30.20,10.0,East,5.8,-,N/A,,Clear,80,2013-09-19 00:54:00
9:54 PM,66.0,55.9,70,30.20,10.0,East,5.8,-,N/A,,Clear,80,2013-09-19 01:54:00
10:54 PM,64.9,57.0,75,30.20,10.0,ENE,5.8,-,N/A,,Clear,60,2013-09-19 02:54:00
11:54 PM,64.0,55.9,75,30.20,10.0,ENE,5.8,-,N/A,,Clear,60,2013-09-19 03:54:00